Location: *
(51.1248°S, 108.4023°W)
Time: 07:33:55
(UTC+00:00)

Envisat - Pass Details

Date: 27 September 2021
Orbit: 764 x 766 km, 98.2° (Epoch: 27 October)

Event Time Altitude Azimuth Distance (km) Brightness Sun altitude
Rises 11:29:38 0° 10° (N) 3,231 6.1 -13.2°
Reaches altitude 10° 11:31:56 10° 8° (N) 2,313 5.4 -12.8°
Maximum altitude 11:37:02 73° 283° (WNW) 817 3.0 -12.1°
Drops below altitude 10° 11:42:13 10° 198° (SSW) 2,343 5.5 -11.3°
Sets 11:44:33 0° 195° (SSW) 3,277 6.3 -10.9°
